Location: ?kun?ru
(16.3916°N, 80.8194°E)
Time: 14:21:38
(UTC+00:00)

ATLAS 2A CENTAUR R/B - Pass Details

Date: 19 May 2025
Orbit: 242 x 13393 km, 26.9° (Epoch: 18 June)

Event Time Altitude Azimuth Distance (km) Brightness Sun altitude
Exits shadow 22:38:16 31° 261° (W) 1,746 3.8 -19.7°
Maximum altitude 22:41:19 56° 197° (SSW) 1,750 4.0 -19.1°
Drops below altitude 10° 23:03:45 10° 125° (SE) 9,118 8.3 -14.3°
Sets 23:19:17 0° 123° (ESE) 13,063 9.3 -10.9°
